This demonstration page uses our WeatherBlox Daily Observations layout. Learn more.

Left ArrowRight Arrow

53.62937, 11.41316

Hourly Observations for June 1, 2015

Temp ( °F °C ) Dew Point ( °F °C ) Humidity (%) Winds ( mph kmh ) Pressure ( in mb ) Visibility ( mi km ) Precip ( " mm )
6:20 am 06:20 Cloudy 52 11 50 10 94 94 W 9 15 29.85 1011 30 48 N/A
6:50 am 06:50 Cloudy 52 11 48 9 88 88 W 12 19 29.85 1011 30 48 N/A
7:20 am 07:20 Cloudy 52 11 48 9 88 88 W 12 19 29.88 1012 30 48 N/A
7:50 am 07:50 Cloudy 52 11 46 8 82 82 WNW 14 22 29.91 1013 30 48 N/A
8:20 am 08:20 Cloudy 54 12 48 9 82 82 W 9 15 29.91 1013 30 48 N/A
8:50 am 08:50 Mostly Cloudy 54 12 46 8 77 77 W 12 19 29.94 1014 30 48 N/A
9:20 am 09:20 Mostly Cloudy 54 12 45 7 72 72 W 12 19 29.94 1014 30 48 N/A
9:50 am 09:50 Mostly Cloudy 55 13 43 6 63 63 W 9 15 29.94 1014 30 48 N/A
10:20 am 10:20 Mostly Cloudy 57 14 43 6 59 59 W 12 19 29.97 1015 30 48 N/A
10:50 am 10:50 Mostly Cloudy 55 13 43 6 63 63 WSW 14 22 29.97 1015 30 48 N/A
11:20 am 11:20 Mostly Cloudy 57 14 43 6 59 59 W 12 19 29.97 1015 30 48 N/A
11:50 am 11:50 Mostly Cloudy 57 14 43 6 59 59 W 10 17 29.97 1015 30 48 N/A
12:20 pm 12:20 Mostly Cloudy 57 14 43 6 59 59 W 9 15 29.97 1015 30 48 N/A
12:50 pm 12:50 Mostly Cloudy 57 14 43 6 59 59 WNW 8 13 30.00 1016 30 48 N/A
1:20 pm 13:20 Mostly Cloudy 59 15 43 6 55 55 WSW 9 15 30.00 1016 30 48 N/A
1:50 pm 13:50 Mostly Cloudy 59 15 43 6 55 55 WSW 7 11 30.00 1016 30 48 N/A
2:20 pm 14:20 Mostly Sunny 59 15 39 4 48 48 WSW 7 11 30.00 1016 7 11 N/A
2:50 pm 14:50 Mostly Sunny 59 15 39 4 48 48 W 7 11 30.00 1016 7 11 N/A
3:20 pm 15:20 Mostly Sunny 59 15 39 4 48 48 WSW 8 13 30.00 1016 7 11 N/A
3:50 pm 15:50 Mostly Sunny 61 16 39 4 45 45 W 7 11 30.03 1017 7 11 N/A
4:20 pm 16:20 Mostly Sunny 61 16 39 4 45 45 WSW 9 15 30.00 1016 7 11 N/A
4:50 pm 16:50 Mostly Sunny 61 16 39 4 45 45 WNW 5 7 30.00 1016 7 11 N/A
5:20 pm 17:20 Mostly Sunny 61 16 41 5 48 48 WSW 5 7 30.00 1016 7 11 N/A
5:50 pm 17:50 Mostly Sunny 61 16 41 5 48 48 SW 7 11 30.00 1016 7 11 N/A
6:20 pm 18:20 Mostly Sunny 61 16 41 5 48 48 WSW 5 7 30.00 1016 7 11 N/A
6:50 pm 18:50 Mostly Sunny 61 16 39 4 45 45 WSW 3 6 30.00 1016 7 11 N/A

Powered by AerisWeather